Погода в Кутаиси

Погода в Кутаиси : погода сейчас, прогноз погоды и архив. Всё, что Вы хотите узнать о погоде в Кутаиси!

Поиск расширенной информации на нашем сайте:

Другие новости

Новости СМИ2

Главная страница сайта

Новости сайта

03.07.2017

Напоминаем, что на нашем специализированном сайте Метеоцентр.Азия вы можете получить высокодетализированные автоматические прогнозы погоды по пунктам России, СНГ и мира в авиационном формате (включающие направление и скорость ветра, видимость, явления погоды, количество и форму облачности, нижнюю и верхнюю границу облачности).

Рекомендуем: Киноманы могут смотреть ужасы онлайн бесплатно в хорошем качестве

Погода в Кутаиси - сегодня

Время (UTC), дата Ветер
(°,м/с) 
Видим.   Явления Облачность Т
(°С)
Тd
(°С)
f(%) Тe
(°С)
Pmin
(гПа)
dP
(гПа)
Po
(мм)
O2
(г/м3)
Тmin Tmax R s Состояние
почвы
03 13.02.18 тихо ()   4000 м  слаб. дождь  10/8 300 м средняя 
[Frnb|As op]
+8 +7.4 96 +8  1014  0.7  750  292         
09 13.02.18 270 (З) 20000 м    10/6 1000 м средняя 
[Sc|As op]
+8.4 +7.3 93 +8  1015.8  0.6  751  292           
12 13.02.18 270 (З) 20000 м  слаб. ливневой дождь  10/6 1000 м кучево-дожд., средняя 
[Cb cap|As op]
+8.6 +8 96 +8  1015.1  -0.7  751  292           
21 13.02.18 270 (З) 10 км    10/5 1000 м средняя 
[Sc|As op]
+7.2 +6.5 95 +6  1019.2  0.9  754  295           
00 14.02.18 320 (СЗ) 10 км    10/5 1000 м средняя 
[Sc|As op]
+6.2 +5.8 97 +5  1021.2  1.9  755  297           
03 14.02.18 270 (З) 10 км    10/5 1000 м средняя 
[Sc|As op]
+5.8 +5.3 97 +7  1021.3  0.1  755  297      0.6     
09 14.02.18 090 (В) 20000 м    4/3 1500 м средняя 
[Cu hum|Ac trans]
+10 +4.6 69 +10  1021.9  -0.6  756  293           
12 14.02.18 090 (В) 20000 м    3/3 1500 м 
[Cu hum]
+12.8 +4 55 +12  1020.4  -1.3  755  290           
21 14.02.18 090 (В) 10 км    ясно 
+9.6 +2.3 60 +7  1019  -0.5  754  293           
00 15.02.18 090 (В) 10  10 км    9/0 средняя 
[Ac trans]
+10.2 +1.3 54 +8  1021.6  2.7  756  293           
09 15.02.18 090 (В) 10  20000 м    6/0 средняя 
[Ac trans]
+14 +2.9 47 +12  1024.7  1.6  758  290           
12 15.02.18 090 (В) 20000 м    3/0 средняя 
[Ac trans]
+16.4 +4.5 45 +16  1023.1  -1.5  757  287           
21 15.02.18 090 (В) 10 км    3/0 средняя 
[Ac trans]
+10.4 +1.1 52 +9  1023  -0.7  757  294           
00 16.02.18 090 (В) 10  10 км    ясно 
+11.8 +1.7 50 +10  1023.1  0.2  757  292           
21 16.02.18 090 (В) 12  10 км    4/0 средняя 
[Ac trans]
+10.4 +0.6 51 +8  1020.9  -0.2  755  293           
00 17.02.18 090 (В) 12  10 км    4/0 средняя 
[Ac trans]
+10.2 +0.6 51 +7  1020.7  -0.2  755  293           
09 17.02.18 090 (В) 20000 м    9/3 1500 м средняя 
[Sc|Ac trans]
+12 +2.9 54 +12  1020.6  -0.8  755  291           
12 17.02.18 270 (З) 20000 м    9/3 1500 м средняя 
[Sc|Ac trans]
+12.8 +4.8 58 +13  1019.4  -1.2  754  290           
21 17.02.18 270 (З) 10 км    10/6 1000 м средняя 
[Sc|As op]
+8 +7.8 99 +8  1019.9  -0.6  754  294           
00 18.02.18 тихо ()   4000 м  слаб. ливневой дождь  10/8 600 м кучево-дожд., средняя 
[Cb cap|As op]
+8 +7.8 99 +8  1018.6  1.3  753  294           
03 18.02.18 180 (Ю) 4000 м  слаб. ливневой дождь  10/8 600 м кучево-дожд., средняя 
[Cb cap|As op]
+7.6 +7.4 99 +8  1019.5  0.9  754  294         
09 18.02.18 240 (ЮЗ) 4000 м  дымка  10/8 600 м средняя 
[Sc|As op]
+7.8 +7.4 97 +8  1018.1  -0.3  753  294           
12 18.02.18 240 (ЮЗ) 4000 м  слаб. ливневой дождь  10/8 600 м кучево-дожд., средняя 
[Cb cap|As op]
+8.2 +7.6 96 +7  1017.6  -0.5  753  293           
21 18.02.18 300 (СЗ) 10 км    10/6 600 м средняя 
[Sc|As op]
+7.2 +4.1 81 +6  1019.5  0.4  754  295           
00 19.02.18 300 (СЗ) 10 км  слаб. ливневой дождь  10/8 600 м кучево-дожд., средняя 
[Cb cap|As op]
+6.6 +5.2 91 +6  1020  0.4  754  296           
Время (UTC), дата Ветер
(°,м/с) 
Видим.   Явления Облачность Т
(°С)
Тd
(°С)
f(%) Тe
(°С)
Pmin
(гПа)
dP
(гПа)
Po
(мм)
O2
(г/м3)
Тmin Tmax R s Состояние
почвы

Для получения пояснительной информации подведите курсор к названию столбца.

ПОГОДА в Кутаиси - архив

Всё, что Вы хотите узнать о погоде в Кутаиси - удобно и подробно!

Выберите нужную дату (начиная с 1 января 2015* года) и нажмите кнопку "Найти".
Будут отображены архивные сводки погоды по пункту Кутаиси, начиная с указанной даты.


Отображать данные в формате CSV (для использования в таблицах Excel)


Внимание! Наш архив погоды предназначен исключительно для личного некоммерческого использования в познавательных целях. Если Вам необходимы официальные справки о состоянии погоды (для производственных, юридических, коммерческих и т.п. целей), обращайтесь в органы Росгидромета.

*Примечание: данная дата относится к архиву по метеостанциям СССР (Россия, СНГ, Балтия).
Архив по метеостанциям Зарубежной Европы и Азии (кроме Китая) хранится 10 дней, по другим регионам земного шара (Китай, Африка, Америка, Австралия, Океания) - 1 день.

Кутаиси - район местоположения метеостанции


Название, широта, долгота, высота метеостанции:
Кутаиси 42.3°ш. 42.6°д. 116 м над ур. моря [Грузия]

Дополнительная информация

В oтличие oт бoльшинства пoгoдных сайтoв мы публикуем пoдрoбную метеoинфoрмацию в детальнoм прoфессиoнальнoм фoрмате.

Характеристики температуры и влажнoсти вoздуха измеряются на высoте 2 м в тени вдали oт зданий и деревьев.
Скoрoсть ветра измеряется на высoте 10 м (на урoвне рoста челoвека скoрoсть ветра ниже в 1.5-2 раза). Если метеoстанция нахoдится в гoрoде или в лесу, тo скoрoсть ветра занижена на 2-4 м/с пo сравнению с oткрытым местoм. Скoрoсть ветра над акватoриями крупных рек и oзёр, а также на вершинах хoлмoв на 2-5 м/с выше, чем в oбычных услoвиях.
Атмoсфернoе давление в разных тoчках местнoсти мoжет значительнo oтличаться oт давления на метеoстанции, в зависимoсти oт услoвий рельефа (при пoдъёме на 10 м давление пoнижается примернo на 1 мм рт.ст.).